Regional Weather Roundup
Issued by NWS

Home | Current Version | Previous Version | Graphics & Text | Print | Product List | Glossary On
Versions: 1 2 3 4 5 6 7 8 9 10 11 12 13 14 15 16 17 18 19 20 21 22 23 24 25 26 27 28 29 30 31 32 33 34 35 36 37 38 39 40 41 42 43 44 45 46 47 48 49 50
915
ASUS43 KMPX 232010
RWRMN
WEATHER ROUNDUP FOR MINNESOTA
NATIONAL WEATHER SERVICE TWIN CITIES/CHANHASSEN MN
200 PM CST MON JAN 23 2017


NOTE: "FAIR" INDICATES FEW OR NO CLOUDS BELOW 12,000 FEET WITH NO
SIGNIFICANT WEATHER AND/OR OBSTRUCTIONS TO VISIBILITY. N/A MEANS
CURRENT SKY AND/OR WEATHER CONDITIONS ARE NOT AVAILABLE.

MNZ060>063-068>070-232100-
   Twin Cities Metro

CITY           SKY/WX    TMP DP  RH WIND       PRES   REMARKS
TWIN CITIES    CLOUDY    34  28  79 W3        29.82F
ST PAUL        CLOUDY    34  31  88 W8        29.83F WCI  27
CRYSTAL        CLOUDY    34  28  79 SW5       29.80F WCI  30
BLAINE         CLOUDY    36  34  93 SW6       29.81F
LAKEVILLE        N/A     32  30  93 W3        29.81F
EDEN PRAIRIE   CLOUDY    34  28  79 W3        29.80F
SOUTH ST PAUL  CLOUDY    34  32  93 W5        29.82S WCI  30
LAKE ELMO      CLOUDY    34  32  93 SW7       29.82S WCI  28
$$
MNZ001>005-007-008-013>017-022>024-027-028-232100-
   Northwest Minnesota

CITY           SKY/WX    TMP DP  RH WIND       PRES   REMARKS
BEMIDJI        CLOUDY    32  26  77 W7        29.76S WCI  26
HALLOCK        MOSUNNY   30  25  80 W14       29.75S WCI  20
ROSEAU         MOSUNNY   30  27  86 SW12      29.75R WCI  21
WARROAD        CLOUDY    32  28  86 SW7       29.75R WCI  26
THIEF RVR FALL CLOUDY    30  25  81 W10       29.78S WCI  21
CROOKSTON      CLOUDY    30  25  80 W9        29.79S WCI  22
FOSSTON        CLOUDY    30  27  86 W7        29.78S WCI  23
DETROIT LAKES  PTSUNNY   32  30  93 NW6       29.79S WCI  26
MOORHEAD       CLOUDY    34  27  75 NW6       29.80F WCI  29
PARK RAPIDS    CLOUDY    32  23  69 NW7       29.77S WCI  26
MAHNOMEN       CLOUDY    31  27  84 W7        29.78S WCI  24
$$
MNZ006-009>011-018-025>026-232100-
   North Central Minnesota

CITY           SKY/WX    TMP DP  RH WIND       PRES   REMARKS
BAUDETTE       CLOUDY    33  28  81 SW8       29.74S WCI  26
FLAG ISLAND    CLOUDY    32  28  86 SW7       29.72S WCI  26
INTL FALLS     CLOUDY    33  30  88 SW5       29.74F WCI  29
WASKISH        CLOUDY    32  30  93 SW8       29.76R WCI  25
BIG FORK       CLOUDY    34  28  80 W5        29.76F WCI  30
LONGVILLE      CLOUDY    30  27  86 W3        29.77S
GRAND RAPIDS   CLOUDY    33  29  85 NW6       29.78F WCI  28
CRANE LAKE     CLOUDY    34  32  93 CALM      29.76S
ORR            CLOUDY    32  28  86 CALM      29.73S
COOK           CLOUDY    34  32  93 W5        29.76R FOG     WCI  30
WALKER         CLOUDY    31  25  76 W8        29.77S WCI  24
$$
MNZ012-019>021-037-232100-
   Northeast Minnesota

CITY           SKY/WX    TMP DP  RH WIND       PRES   REMARKS
DULUTH         CLOUDY    36  32  85 W9        29.75R
ELY            CLOUDY    36  34  93 CALM      29.73S
HIBBING        CLOUDY    32  32 100 W7        29.75S WCI  26
EVELETH        CLOUDY    35  33  94 W6        29.76R FOG     WCI  30
DULUTH HARBOR  CLOUDY    37  36  93 SW8       29.78R
TWO HARBORS    CLOUDY    41  36  81 S3        29.73S
SILVER BAY     CLOUDY    39  36  87 CALM      29.72S
GRAND MARAIS     N/A     38  35  89 SW3       29.76F
G MARAIS ARPRT CLOUDY    34  28  80 CALM      29.72F
$$
MNZ029>031-032-039>041-046>048-054>057-064-232100-
   West Central Minnesota

CITY           SKY/WX    TMP DP  RH WIND       PRES   REMARKS
FERGUS FALLS   CLOUDY    32  27  80 CALM      29.84S
WHEATON        CLOUDY    32  25  74 CALM      29.83F
MORRIS         CLOUDY    32  28  86 W3        29.81R
ALEXANDRIA     CLOUDY    31  26  82 NW6       29.79F WCI  25
ELBOW LAKE     CLOUDY    31  26  81 NW3       29.81S HAZE
WADENA         CLOUDY    30  25  80 W6        29.78S WCI  24
GLENWOOD       CLOUDY    30  27  86 W6        29.79F WCI  24
APPLETON       CLOUDY    34  28  80 CALM      29.82S
ORTONVILLE     CLOUDY    32  25  74 CALM      29.81F
MADISON        CLOUDY    36  28  75 CALM      29.82S
WILLMAR        CLOUDY    34  30  86 CALM      29.82F
$$
MNZ033>034-036-042>043-049>051-058-059-232100-
   Central Minnesota

CITY           SKY/WX    TMP DP  RH WIND       PRES   REMARKS
ST CLOUD       CLOUDY    32  29  88 W6        29.80F WCI  26
SAUK CENTRE    CLOUDY    31  27  86 NW6       29.80F WCI  25
PAYNESVILLE    CLOUDY    32  30  92 NW7       29.81F WCI  26
AITKIN         CLOUDY    34  28  80 W3        29.77F HAZE
PINE RIVER     CLOUDY    32  27  80 W5        29.81F WCI  27
BRAINERD       CLOUDY    31  27  85 W3        29.79F
STAPLES        CLOUDY    30  27  86 W6        29.79S WCI  24
LONG PRAIRIE   CLOUDY    32  27  80 CALM      29.80S
LITTLE FALLS   CLOUDY    32  27  80 W3        29.80F
LITCHFIELD     CLOUDY    34  28  80 NW6       29.81F WCI  29
BUFFALO        CLOUDY    33  29  86 W6        29.82F FOG     WCI  27
MAPLE LAKE     CLOUDY    33  31  90 NW3       29.82F
HUTCHINSON     CLOUDY    33  29  85 NW10      29.82F WCI  25
$$
MNZ037-044-045-052-053-232100-
   East Central Minnesota

CITY           SKY/WX    TMP DP  RH WIND       PRES   REMARKS
PRINCETON      CLOUDY    34  30  86 W8        29.81S WCI  27
MORA           CLOUDY    34  32  93 W5        29.81S WCI  30
CAMBRIDGE      CLOUDY    36  36 100 W5        29.79S
RUSH CITY      CLOUDY    34  32  93 W6        29.81R FOG     WCI  29
MOOSE LAKE     CLOUDY    36  32  87 CALM      29.76S
HINCKLEY       CLOUDY    36  34  93 SW6       29.79S
CLOQUET        CLOUDY    36  32  87 W8        29.76S FOG
MCGREGOR       CLOUDY    32  32 100 W8        29.78S WCI  25
$$
MNZ071>073-080-081-089-090-097-098-232100-
   Southwest Minnesota

CITY           SKY/WX    TMP DP  RH WIND       PRES   REMARKS
MONTEVIDEO     CLOUDY    34  34 100 NW6       29.84S WCI  29
GRANITE FALLS  CLOUDY    33  29  85 W6        29.84S WCI  28
CANBY          CLOUDY    32  29  88 CALM      29.83F
MARSHALL       CLOUDY    32  28  85 W7        29.82F WCI  26
REDWOOD FALLS  CLOUDY    33  28  81 W8        29.82F WCI  26
OLIVIA         PTSUNNY   32  30  93 NW6       29.81S WCI  26
PIPESTONE      CLOUDY    30  28  93 CALM      29.78F
WINDOM         CLOUDY    32  28  86 NW6       29.82S WCI  26
JACKSON        CLOUDY    32  28  86 W3        29.82F
TRACY          CLOUDY    32  29  90 NW3       29.82F
SLAYTON        CLOUDY    29  28  95 W5        29.81F FOG     WCI  24
$$
MNZ065>067-074>077-082>085-091>093-232100-
   South Central Minnesota

CITY           SKY/WX    TMP DP  RH WIND       PRES   REMARKS
MANKATO        CLOUDY    33  29  85 NW8       29.82F WCI  26
NEW ULM        CLOUDY    32  30  93 NW3       29.82S
ST JAMES       CLOUDY    32  30  93 W5        29.84S WCI  27
FAIRMONT       MIX PCPN  32  30  92 NW8       29.83S WCI  25
GLENCOE        CLOUDY    34  31  90 NW6       29.81F WCI  29
OWATONNA       CLOUDY    32  28  86 W3        29.81F
WASECA         CLOUDY    32  28  86 NW7       29.82F WCI  26
ALBERT LEA     CLOUDY    34  28  80 NW3       29.81S
$$
MNZ078>079-086>088-094>096-232100-
   Southeast Minnesota

CITY           SKY/WX    TMP DP  RH WIND       PRES   REMARKS
ROCHESTER      CLOUDY    33  31  92 W13       29.80F WCI  24
RED WING       CLOUDY    36  32  87 NW7       29.82S
STANTON        CLOUDY    34  30  84 W3        29.81F
DODGE CENTER   PTSUNNY   30  30 100 CALM      29.80F
WINONA         LGT RAIN  36  34  93 W5        29.82S
AUSTIN         CLOUDY    32  28  86 NW8       29.81F WCI  25
PRESTON        CLOUDY    33  30  90 W8        29.80F FOG     WCI  26
$$
ABBREVIATIONS USED IN REMARKS
   TC - TEMPERATURES IN CELSIUS
  WCI - WIND CHILL INDEX
   HX - HEAT INDEX
  VSB - VISIBILITY
$$




USA.gov is the U.S. government's official web portal to all federal, state and local government web resources and services.